IU2EVW-13 Weather Reports


time (UTC)temp
C
wind
direction
speed
KPH
gust
KPH
rain 1hr
cm
rain 24hr
cm
rain mn
cm
humidity
%
barometer
mb
20260507080255 9 0.0 0.0 0.00 0.00 0.00 82 1016.2
20260507074254 8 0.0 0.0 0.00 0.00 0.00 83 1016.4
20260507072253 8 0.0 0.0 0.00 0.00 0.00 85 1016.3
20260507070251 8 0.0 0.0 0.00 0.00 0.00 84 1016.2
20260507064250 7 0.0 0.0 0.00 0.00 0.00 84 1016.3
20260507062249 7 0.0 0.0 0.00 0.00 0.00 84 1016.5
20260507060247 6 0.0 0.0 0.00 0.00 0.00 84 1016.4
20260507054246 6 0.0 0.0 0.00 0.00 0.00 84 1016.2
20260507052244 6 0.0 0.0 0.00 0.00 0.00 85 1016.0
20260507050243 6 0.0 0.0 0.00 0.00 0.00 85 1015.7
20260507044242 6 0.0 0.0 0.00 0.00 0.00 86 1015.7
20260507042241 6 0.0 0.0 0.00 0.00 0.00 85 1015.7
20260507040239 6 0.0 0.0 0.00 0.00 0.00 85 1015.6
20260507034238 6 0.0 0.0 0.00 0.00 0.00 84 1015.7
20260507032236 6 0.0 0.0 0.00 0.00 0.00 84 1015.7
20260507030235 7 0.0 0.0 0.00 0.00 0.00 83 1015.5
20260507024234 6 0.0 0.0 0.00 0.00 0.00 84 1015.7
20260507022232 6 0.0 0.0 0.00 0.00 0.00 85 1015.5
20260507020231 7 0.0 0.0 0.00 0.00 0.00 83 1015.1
20260507014230 6 0.0 0.0 0.00 0.00 0.00 83 1015.6
20260507012228 7 0.0 0.0 0.00 0.00 0.00 82 1015.2
20260507010227 7 0.0 0.0 0.00 0.00 0.00 83 1015.5
20260507004226 7 0.0 0.0 0.00 0.00 0.00 83 1015.6
20260507002224 7 0.0 0.0 0.00 0.00 0.00 85 1015.8
20260507000223 7 0.0 0.0 0.00 0.00 0.00 85 1015.8
20260506234221 6 0.0 0.0 0.00 0.00 0.00 85 1016.4
20260506232220 6 0.0 0.0 0.00 0.00 0.00 85 1016.0
20260506230219 7 0.0 0.0 0.00 0.00 0.00 87 1015.6
20260506224217 6 0.0 0.0 0.00 0.00 0.00 86 1015.4
20260506222216 7 0.0 0.0 0.00 0.00 0.00 84 1015.2
20260506220214 6 0.0 0.0 0.00 0.00 0.00 85 1014.9
20260506214213 7 0.0 0.0 0.00 0.00 0.00 84 1014.9
20260506212212 7 0.0 0.0 0.00 0.00 0.00 83 1014.9
20260506210211 7 0.0 0.0 0.00 0.00 0.00 83 1014.9
20260506204209 6 0.0 0.0 0.00 0.00 0.00 88 1015.0
20260506202208 7 0.0 0.0 0.00 0.00 0.00 84 1014.5
20260506200206 7 0.0 0.0 0.00 0.00 0.00 87 1016.1
20260506194205 7 0.0 0.0 0.00 0.00 0.00 86 1014.9
20260506192204 7 0.0 0.0 0.00 0.00 0.00 85 1013.8
20260506190202 7 0.0 0.0 0.00 0.00 0.00 82 1013.6
20260506184201 7 0.0 0.0 0.00 0.00 0.00 81 1013.5
20260506182200 7 0.0 0.0 0.00 0.00 0.00 84 1013.8
20260506180158 7 0.0 0.0 0.00 0.00 0.00 80 1013.2
20260506174157 7 0.0 0.0 0.00 0.00 0.00 79 1012.8
20260506172155 7 0.0 0.0 0.00 0.00 0.00 79 1012.8
20260506170154 8 0.0 0.0 0.00 0.00 0.00 83 1012.8
20260506164153 7 0.0 0.0 0.00 0.00 0.00 84 1012.8
20260506162151 8 0.0 0.0 0.00 0.00 0.00 86 1012.9
20260506160150 8 0.0 0.0 0.00 0.00 0.00 87 1013.1
20260506154148 8 0.0 0.0 0.00 0.00 0.00 88 1013.2
20260506152147 8 0.0 0.0 0.00 0.00 0.00 86 1012.8
20260506150146 9 0.0 0.0 0.00 0.00 0.00 85 1012.5
20260506144144 9 0.0 0.0 0.00 0.00 0.00 84 1012.0
20260506142143 10 0.0 0.0 0.00 0.00 0.00 86 1011.7
20260506140141 10 0.0 0.0 0.00 0.00 0.00 83 1011.2
20260506134140 11 0.0 0.0 0.00 0.00 0.00 78 1011.0
20260506132138 11 0.0 0.0 0.00 0.00 0.00 78 1011.3
20260506130137 12 0.0 0.0 0.00 0.00 0.00 84 1011.3
20260506124136 10 0.0 0.0 0.00 0.00 0.00 83 1010.9
20260506122134 11 0.0 0.0 0.00 0.00 0.00 80 1010.9
20260506120133 13 0.0 0.0 0.00 0.00 0.00 76 1010.6
20260506114132 12 0.0 0.0 0.00 0.00 0.00 81 1011.1
20260506112130 12 0.0 0.0 0.00 0.00 0.00 80 1011.0
20260506110129 11 0.0 0.0 0.00 0.00 0.00 84 1011.0
20260506104127 10 0.0 0.0 0.00 0.00 0.00 86 1011.5
20260506102126 9 0.0 0.0 0.00 0.00 0.00 88 1012.0
20260506100125 10 0.0 0.0 0.00 0.00 0.00 86 1011.5
20260506094123 10 0.0 0.0 0.00 0.00 0.00 85 1011.2
20260506092122 10 0.0 0.0 0.00 0.00 0.00 84 1010.9
20260506090120 10 0.0 0.0 0.00 0.00 0.00 78 1010.5
20260506084119 10 0.0 0.0 0.00 0.00 0.00 84 1010.9
20260506082118 10 0.0 0.0 0.00 0.00 0.00 84 1011.3